Regional Weather Roundup
Issued by NWS

Home | Current Version | Previous Version | Graphics & Text | Print | Product List | Glossary On
Versions: 1 2 3 4 5 6 7 8 9 10 11 12 13 14 15 16 17 18 19 20 21 22 23 24 25 26 27 28 29 30 31 32 33 34 35 36 37 38 39 40 41 42 43 44 45 46 47 48 49 50
512
ASUS43 KLOT 061008
RWRIL

ILLINOIS REGIONAL WEATHER ROUNDUP
NATIONAL WEATHER SERVICE CHICAGO/ROMEOVILLE IL
500 AM CDT FRI MAY 06 2016

NOTE: "FAIR" INDICATES FEW OR NO CLOUDS BELOW 12,000 FEET WITH NO
SIGNIFICANT WEATHER AND/OR OBSTRUCTIONS TO VISIBILITY.

* THESE STATIONS ARE NOT UNDER NWS QUALITY CONTROL. THEY ALSO MAY NOT
  REPORT WEATHER SUCH AS PRECIPITATION OR FOG.

ILZ001-002-007-009-015-016-024-061100-
NORTHWEST ILLINOIS

CITY           SKY/WX    TMP DP  RH WIND       PRES   REMARKS
MOLINE         CLEAR     44  39  82 CALM      29.98S
STERLING*      CLEAR     45  43  93 CALM      29.99R
SAVANNA*       CLEAR     44  41  91 SE6       29.98R
$$

ILZ003-004-008-010-011-017-018-061100-
NORTH CENTRAL ILLINOIS

CITY           SKY/WX    TMP DP  RH WIND       PRES   REMARKS
ROCKFORD       MOCLDY    47  40  76 S3        29.99S
FREEPORT*      CLEAR     49  38  64 SW7       29.99R
ROCHELLE*      CLOUDY    44  41  89 CALM      29.99S
DE KALB*       CLOUDY    51  41  67 W8        29.99S
$$

ILZ005-006-012>014-019>023-061100-
NORTHEAST ILLINOIS

CITY           SKY/WX    TMP DP  RH WIND       PRES   REMARKS
CHICAGO-OHARE  CLOUDY    48  42  80 W8        29.96S
CHICAGO-MIDWAY CLOUDY    49  40  71 SW7       29.98R
AURORA         CLOUDY    42  39  89 CALM      29.99R
LANSING*       MOCLDY    40  39  97 CALM      29.98R
JOLIET*        CLOUDY    44  42  95 CALM      29.99R
WAUKEGAN       CLOUDY    48  41  76 CALM      29.95S
DUPAGE AIRPORT CLOUDY    46  41  82 CALM      29.97S
KANKAKEE*      CLEAR     43  40  89 W3        29.99S
WHEELING       CLOUDY    47  40  76 CALM      29.98R
MORRIS*        CLOUDY    46  40  79 CALM      29.98S
ROMEOVILLE*    PTCLDY    46  41  83 CALM      29.99R
NORTHERLY ISL    N/A     51  38  60 W7          N/A
NORTHERLY ISL    N/A     51  38  60 W7          N/A
$$

LMZ740>746-061100-
SOUTHERN LAKE MICHIGAN

STATION/POSITION SKY/WX   TEMP    WIND        PRES    VSBY  WAVE
                          AIR SEA DIR/SP/G                  HT/PER
                          (F)     (DEG/KT/KT) (MB)    (MI)  (FT/S)
SOUTHERN BUOY              44 40  220/  8/  8 1014.2F         1
WILMETTE HARBOR            48 44  250/  6/ 10   N/A           1/ 5
HARRISON CRIB              51     180/  2/  3   N/A
BURNHAM HARBOR             51     260/  7/  7   N/A
CALUMET HARBOR             45      CALM  /  2 1014.3S
BURNS HARBOR               44     190/  4/  5 1015.2F
MICHIGAN CITY              42     140/  4/  5   N/A
ST. JOSEPH                 46 47                N/A           1/ 4
$$

ILZ025>027-034>036-040-047-049-050-058-095>099-061100-
WEST-CENTRAL ILLINOIS

CITY           SKY/WX    TMP DP  RH WIND       PRES   REMARKS
QUINCY         CLEAR     45  41  86 SW7       30.03R
GALESBURG*     CLEAR     45  39  78 SW3       30.00S
MACOMB*        CLEAR     46  40  81 W3        30.03S
JACKSONVILLE*  CLEAR     47  40  76 SW6       30.02S
PITTSFIELD*    CLEAR     47  42  81 W5        30.04S
$$

ILZ028>032-037-038-041>044-048-051>054-059>061-061100-
CENTRAL ILLINOIS

CITY           SKY/WX    TMP DP  RH WIND       PRES   REMARKS
PONTIAC        CLEAR     44  42  93 CALM      30.00S
BLOOMINGTON    CLEAR     46  44  93 W6        30.01S
DECATUR        CLEAR     45  41  86 CALM      30.01S
PEORIA         CLEAR     44  39  82 CALM      30.01S
LACON*         CLEAR     45  43  95 CALM      30.00R
LINCOLN*       CLEAR     43  42  96 CALM      30.01S
SPRINGFIELD    CLEAR     44  40  85 SW3       30.02S
TAYLORVILLE    CLEAR     44  42  93 CALM      30.02S
$$

ILZ033-039-045-046-055>057-062-063-061100-
EAST-CENTRAL ILLINOIS

CITY           SKY/WX    TMP DP  RH WIND       PRES   REMARKS
CHAMPAIGN      CLEAR     42  40  92 W5        30.00R
RANTOUL*       CLEAR     46  42  88 W7        29.99S
MATTOON        CLEAR     46  40  79 W6        30.00R
PARIS*         CLEAR     42  42  97 CALM      30.00S
$$

ILZ079-100>102-061100-
SOUTHWEST ILLINOIS

CITY           SKY/WX    TMP DP  RH WIND       PRES   REMARKS
ALTON          CLEAR     42  41  95 CALM      30.04R
BELLEVILLE     CLEAR     45  44  99 CALM      30.03R
CAHOKIA*       CLEAR     44  42  93 CALM      30.04S
SPARTA*        CLEAR     48  44  86 W6        30.04F
$$

ILZ064>066-069>071-074>076-080>082-084>086-088>090-092>094-061100-
SOUTH-CENTRAL ILLINOIS

CITY           SKY/WX    TMP DP  RH WIND       PRES   REMARKS
CARBONDALE     CLEAR     45  42  89 CALM      30.03S
CAIRO*         CLEAR     47  45  92 CALM      30.04R
EFFINGHAM*     CLEAR     45  45 100 CALM      30.03R
MARION           N/A     45  45 100 CALM      30.04S FOG
MT. VERNON     CLEAR     41  36  81 CALM      30.03S VSB 1
CENTRALIA*     CLEAR     46  46  99 CALM      30.02S
SALEM*         CLEAR     46  44  93 CALM      30.03S
METROPOLIS*    CLEAR     45  45 100 CALM      30.04R
$$

ILZ067-068-072-073-078-083-087-091-061100-
SOUTHEAST ILLINOIS

CITY           SKY/WX    TMP DP  RH WIND       PRES   REMARKS
LAWRENCEVILLE  CLEAR     46  44  93 NW3       30.00S
FLORA*         CLEAR     46  44  93 CALM      30.02R
FAIRFIELD*     CLEAR     46  45  98 CALM      30.01S
HARRISBURG*    CLEAR     45  44  98 CALM      30.03S
ROBINSON*      CLEAR     41  41  99 CALM      30.01S
CARMI*         CLEAR     45  45  98 W3        30.01S
$$

ABBREVIATIONS USED IN REMARKS
   TC - TEMPERATURE IN CELSIUS
  WCI - WIND CHILL INDEX
   HX - HEAT INDEX
  VSB - VISIBILITY
$$





USA.gov is the U.S. government's official web portal to all federal, state and local government web resources and services.